Overview Statistics Trail Chart Weather Telemetry Raw packets
 

This is the latest recevied weather packets stored in our database for station/object K1BES. If no packets are shown the sender has not sent any weather packets the latest 10 day(s).

<< 24 25 26 27 28 29 30 >>
Time Temp. Humidity Pressure Rain* Wind** Luminosity Snow
1788479660 28.89° C 82% 1015.8 hPa 0 mm - 1 W/m² -
1788479360 28.89° C 82% 1015.8 hPa 0 mm - 3 W/m² -
1788479055 28.89° C 80% 1015.7 hPa 0 mm - 5 W/m² -
1788478752 29.44° C 80% 1015.7 hPa 0 mm - 8 W/m² -
1788478448 29.44° C 80% 1015.8 hPa 0 mm - 12 W/m² -
1788478173 29.44° C 80% 1015.8 hPa 0 mm - 17 W/m² -
1788477843 29.44° C 79% 1015.7 hPa 0 mm - 21 W/m² -
1788477542 29.44° C 79% 1015.7 hPa 0 mm - 27 W/m² -
1788477237 29.44° C 78% 1015.8 hPa 0 mm - 33 W/m² -
1788476933 30° C 78% 1015.6 hPa 0 mm - 40 W/m² -
1788476628 30° C 78% 1015.5 hPa 0 mm - 47 W/m² -
1788476324 30° C 78% 1015.7 hPa 0 mm - 54 W/m² -
1788476019 30° C 78% 1015.6 hPa 0 mm - 60 W/m² -
1788475716 30° C 77% 1015.7 hPa 0 mm - 67 W/m² -
1788475412 30° C 77% 1015.3 hPa 0 mm - 75 W/m² -
1788475108 30° C 76% 1015.4 hPa 0 mm - 82 W/m² -
1788474806 30.56° C 76% 1015.4 hPa 0 mm - 89 W/m² -
1788474501 30.56° C 76% 1015.4 hPa 0 mm - 99 W/m² -
1788474200 30.56° C 76% 1015.4 hPa 0 mm - 101 W/m² -
1788473895 30.56° C 75% 1015.2 hPa 0 mm - 109 W/m² -
1788473594 31.11° C 74% 1015.3 hPa 0 mm - 116 W/m² -
1788473292 31.11° C 73% 1015.2 hPa 0 mm - 131 W/m² -
1788472987 31.11° C 74% 1014.9 hPa 0 mm - 146 W/m² -
1788472685 31.11° C 72% 1014.9 hPa 0 mm - 159 W/m² -
1788472382 31.67° C 72% 1014.8 hPa 0 mm - 161 W/m² -

* Rain latest hour (hover to see other rain measurements)
** Current wind speed in m/s (hover to see current wind gust speed)